Location: Caltech
(34.1382°N, 118.1253°W)
Time: 00:56:50
(UTC-07:00)

Oscar 10/S400 - Visible Passes

Search period start: 24 May 2017 00:00
Search period end: 03 June 2017 00:00
Orbit: 4002 x 35445 km, 27.0° (Epoch: 21 May)

Date Brightness Start Highest point End Pass type
(mag) Time Alt. Az. Time Alt. Az. Time Alt. Az.
24 May ? 20:00:49 10° WNW 21:54:40 25° WNW 01:32:32 10° WNW visible
25 May ? 19:02:17 10° W 21:12:08 34° W 02:05:55 10° W visible
26 May ? 18:08:39 10° W 20:29:13 42° W 02:41:28 10° W visible
27 May ? 17:17:57 10° W 19:45:52 51° W 02:57:15 12° SW visible
28 May ? 16:29:11 10° W 19:02:03 60° W 02:16:56 18° SW visible
29 May ? 15:41:47 10° WSW 18:17:44 69° WSW 01:36:37 24° SW visible
30 May ? 14:55:24 10° WSW 17:32:47 78° SW 00:56:19 28° SSW visible
31 May ? 14:09:50 10° WSW 16:44:49 81° S 00:16:00 30° S visible
01 Jun ? 13:24:53 10° WSW 17:58:23 77° SSE 23:35:40 30° S visible
02 Jun ? 12:40:28 10° SW 18:30:21 73° SE 22:55:21 27° SSE visible
